Theta_e
321 317 314 313 302 299 294 298 304 303 302 306 311 309 307 309 309 305 325 327 338 338 340 341 344 348 348 349 349 348 346 345 344 343 341 340 338 337 338 337 339 336 335 334 333 332 333 333 332
317 317 312 307 298 291 294 301 302 302 307 311 312 309 308 307 325 326 320 336 338 339 339 339 342 347 349 349 348 347 346 345 344 343 342 339 338 336 336 336 337 335 335 334 333 332 331 330 330
317 316 305 302 295 292 294 299 301 304 307 307 304 308 309 319 324 325 323 337 338 339 339 338 341 346 348 348 347 347 347 345 346 343 342 338 336 335 336 335 338 336 333 333 332 331 329 329 329
305 308 305 296 294 298 299 303 303 306 306 308 307 304 318 328 327 327 322 337 337 338 338 338 342 345 346 348 347 347 345 345 345 344 340 338 336 336 335 335 335 334 332 332 331 329 329 329 329
305 301 294 291 292 296 300 303 303 305 304 304 308 306 314 328 330 324 321 335 336 337 337 338 341 344 345 347 346 346 344 343 343 342 341 340 338 335 334 334 332 333 331 330 329 329 329 329 329
297 295 287 288 291 297 299 301 300 300 305 304 304 305 309 328 329 321 319 331 337 334 336 338 336 340 343 344 344 343 343 342 342 341 340 339 337 333 333 334 333 331 330 328 328 328 328 328 328
294 292 287 287 289 293 297 300 298 299 303 303 305 300 308 322 328 322 318 330 335 335 335 336 340 339 336 338 339 340 341 340 340 339 339 337 333 332 332 331 334 332 329 328 328 328 328 328 329
298 292 287 287 289 290 296 297 300 299 299 307 306 300 301 323 327 321 318 333 333 334 334 336 339 338 338 337 333 335 336 336 337 336 333 330 328 328 329 328 332 331 329 329 329 328 328 329 330
301 289 286 288 289 290 295 294 297 300 297 300 304 305 322 326 328 321 317 329 331 333 332 335 337 337 336 335 331 330 331 331 331 329 326 325 325 324 325 325 329 332 332 330 330 330 330 331 329
293 288 289 293 293 293 296 296 296 296 296 296 298 308 318 325 322 320 317 317 326 329 330 334 336 335 335 337 330 330 330 330 329 327 325 325 324 324 326 322 326 330 328 330 330 331 330 326 322
295 288 294 296 299 298 297 296 298 295 293 294 296 300 302 308 319 319 322 320 325 330 331 332 334 333 334 334 331 329 328 327 326 325 324 324 324 321 322 321 323 321 317 320 323 323 322 321 320
291 297 298 298 300 298 296 298 296 297 297 301 300 303 302 300 307 319 320 322 325 329 331 332 333 332 332 333 331 329 327 326 324 324 324 322 320 320 320 320 320 319 320 318 317 317 320 321 323
293 296 299 299 299 299 299 296 296 296 299 301 302 302 301 300 300 311 321 323 325 327 330 332 331 331 329 331 331 328 328 325 324 324 325 321 320 319 319 319 320 319 319 318 319 320 320 321 322
296 297 297 298 298 299 296 295 296 297 300 300 301 301 300 301 301 301 319 321 324 326 328 331 331 331 331 330 330 329 330 329 325 323 323 322 320 318 318 317 317 318 319 320 320 320 320 319 321
297 292 295 296 298 297 298 292 294 298 301 299 300 302 304 305 310 310 312 315 323 326 328 327 329 329 330 330 330 330 330 327 324 323 322 321 321 319 318 317 317 318 319 320 320 320 320 320 321
292 291 285 294 297 298 295 286 295 299 298 295 297 299 300 303 307 309 312 314 319 324 327 327 329 328 328 327 328 328 329 325 324 322 322 322 322 321 318 318 317 319 319 320 321 320 322 323 323
288 281 286 289 297 295 293 287 295 299 297 294 294 296 299 301 306 307 310 311 314 324 326 326 326 327 326 327 328 327 328 325 325 321 321 322 323 322 320 319 319 320 320 320 323 324 324 322 322
282 286 287 286 293 293 291 292 296 296 295 294 294 296 296 300 303 306 307 310 311 320 325 326 325 326 326 327 326 327 327 327 326 324 323 323 323 323 321 320 320 321 322 324 325 323 324 324 320
289 289 287 288 295 292 292 291 292 295 293 293 293 294 295 299 303 305 306 307 308 310 322 324 324 326 326 326 324 324 323 324 325 327 325 325 325 324 322 322 322 322 322 326 325 324 323 320 323
289 284 283 288 294 294 291 289 291 292 293 292 291 292 294 297 301 302 303 304 305 306 309 324 324 325 327 327 326 324 324 325 326 327 328 328 326 325 324 323 322 322 323 325 323 323 320 320 323
286 282 284 284 291 293 289 287 287 292 293 294 293 293 292 296 299 301 302 302 303 303 306 311 314 320 325 327 326 324 324 324 324 324 324 326 328 326 325 324 324 323 323 322 320 320 319 318 320
283 292 288 287 289 283 287 277 284 287 289 291 292 292 294 296 299 301 302 302 302 304 307 308 309 310 313 318 325 323 321 319 322 323 325 325 325 324 324 324 323 322 322 321 321 321 320 322 319
286 291 289 288 289 288 281 278 282 287 285 288 292 294 297 298 298 298 301 303 304 305 306 307 308 308 308 309 312 312 312 319 321 322 322 320 319 320 319 321 322 322 321 322 321 319 316 317 314
291 289 289 289 288 279 278 277 275 284 286 288 291 293 295 297 298 299 301 302 302 304 305 305 305 305 306 307 307 308 308 309 310 313 315 315 315 315 316 316 316 316 316 315 316 315 314 314 313
288 284 272 272 273 273 281 279 278 287 290 290 290 292 294 295 295 296 297 297 299 300 301 303 302 301 304 304 304 305 306 307 308 308 308 309 310 310 311 312 312 312 313 314 315 315 314 314 313
285 284 274 270 272 274 281 275 278 288 291 291 292 292 292 293 293 293 295 296 296 297 298 300 300 299 301 301 302 303 305 305 306 307 307 307 307 307 308 309 310 310 311 312 313 312 311 313 314
285 280 286 280 275 275 277 281 286 289 288 288 288 289 289 290 290 291 292 293 294 295 295 296 298 298 299 299 300 300 302 304 304 304 305 306 305 306 306 306 307 307 308 309 309 309 308 308 308
286 288 279 277 268 270 276 276 278 284 284 285 285 285 287 289 289 290 291 292 292 292 293 294 295 296 297 298 299 299 301 302 303 303 302 303 303 303 303 304 304 304 304 306 306 306 304 303 302
284 283 284 282 279 276 274 275 284 284 284 283 284 286 286 287 288 289 290 291 292 292 292 292 293 293 295 296 296 297 298 300 300 300 300 300 300 300 300 301 301 301 302 302 302 301 301 299 297
286 284 284 277 276 278 279 277 288 285 284 284 284 286 286 287 288 288 289 290 290 290 291 291 292 293 293 296 296 296 296 297 298 298 298 298 297 298 298 299 298 298 298 298 298 296 296 295 294
Wind_Speed
13 11 4 4 4 4 5 9 8 8 1 5 5 5 3 4 3 4 3 10 21 17 15 15 18 17 17 16 16 16 15 17 17 15 15 14 13 13 13 14 14 14 14 13 13 11 10 9 9
6 7 3 2 4 1 7 9 12 6 2 6 6 2 4 0 3 5 7 15 20 17 14 14 16 16 17 17 16 16 16 17 18 16 15 13 12 11 12 14 13 14 14 13 12 10 9 8 7
6 4 4 4 4 7 6 4 5 2 4 3 2 2 2 4 3 7 3 19 19 16 14 12 16 17 15 16 16 15 14 16 18 16 14 12 12 12 12 11 11 11 12 12 11 9 8 6 6
3 4 4 3 8 8 9 12 6 10 4 2 3 4 4 6 3 9 10 19 17 17 14 14 16 17 16 16 16 14 13 15 18 16 14 13 13 12 12 11 9 9 11 11 9 8 6 5 5
3 2 0 3 7 7 10 13 11 5 3 2 1 3 2 3 7 7 11 15 17 15 13 15 15 16 17 16 16 14 12 16 15 15 13 12 13 12 11 11 10 8 9 8 8 7 5 4 3
3 3 2 5 6 9 8 10 8 7 4 1 5 6 3 3 7 5 6 12 16 14 14 15 13 12 16 16 17 16 15 15 15 14 13 12 12 11 11 11 9 9 8 7 6 5 4 3 2
3 3 4 4 5 6 4 16 9 9 8 4 4 2 4 3 4 7 5 8 13 13 12 14 11 13 12 13 15 17 16 14 14 14 13 13 11 11 11 10 9 9 8 6 6 4 3 1 1
3 3 3 3 5 5 8 9 4 14 6 12 3 4 4 1 2 6 5 9 10 9 11 13 9 11 10 11 13 13 14 13 13 12 12 11 12 12 10 8 8 8 7 6 5 4 3 3 4
4 4 2 5 6 7 7 10 4 7 4 8 10 5 5 2 6 3 6 5 5 5 7 12 8 10 9 8 8 11 13 14 13 12 12 9 5 7 9 8 9 8 7 6 6 6 5 6 7
4 2 1 2 3 5 9 7 10 11 17 7 11 7 11 7 4 2 1 7 4 6 9 12 11 9 11 8 6 6 6 6 7 8 7 5 6 6 6 7 11 10 8 7 8 8 8 7 3
5 3 5 3 8 7 7 9 7 8 8 2 11 24 10 6 4 5 5 6 9 9 8 13 12 9 10 9 6 4 3 3 4 7 7 6 5 4 4 4 4 4 6 3 5 5 4 4 4
3 4 8 7 8 7 6 6 7 7 9 13 14 17 11 10 8 7 7 8 7 11 13 10 12 13 10 8 8 7 5 4 4 6 8 5 3 4 6 4 5 4 4 5 5 3 5 5 6
3 6 10 9 12 9 7 6 5 9 10 12 13 13 17 8 11 8 9 6 6 12 12 15 12 14 13 12 9 8 8 5 6 6 7 4 4 5 5 4 4 4 4 4 4 4 4 5 4
4 5 12 5 7 6 8 5 4 8 10 13 15 12 12 10 10 9 7 10 8 9 10 11 15 12 11 11 12 9 8 8 8 6 7 6 5 4 5 4 4 4 4 4 5 4 4 4 3
4 3 8 4 3 5 6 6 4 6 15 15 15 13 15 16 15 10 10 12 11 9 14 11 13 13 14 12 11 8 7 7 6 6 7 7 5 6 5 5 4 4 4 5 4 3 3 3 3
2 3 7 8 8 4 5 6 8 12 11 14 17 16 16 17 15 12 14 13 13 6 12 11 10 12 13 11 8 6 5 6 6 5 5 7 7 6 5 4 4 5 4 4 4 4 3 3 3
8 4 7 8 5 7 6 7 10 12 12 11 13 18 19 19 17 13 15 15 17 8 11 8 11 13 11 10 7 6 7 4 5 5 5 7 6 6 5 4 4 5 4 4 4 4 4 3 3
5 4 5 6 6 6 7 9 11 14 13 14 15 15 16 17 16 13 15 15 16 13 9 14 8 11 12 8 5 5 4 4 4 5 7 7 6 7 5 4 5 5 4 4 3 5 4 3 4
6 5 7 6 4 3 5 5 11 12 12 15 15 14 16 16 14 12 13 15 15 12 8 10 12 11 10 8 7 6 8 3 3 4 6 8 9 8 6 4 5 4 5 5 4 3 5 4 4
4 2 5 6 3 2 6 4 7 11 10 10 12 15 19 17 13 12 12 13 12 14 16 7 13 12 10 9 8 4 6 4 3 3 5 6 6 8 8 7 6 6 5 5 5 4 2 3 4
3 3 3 7 4 3 7 1 8 8 7 11 11 13 17 17 11 11 13 13 12 14 15 11 10 3 4 9 7 3 2 3 4 3 3 4 5 5 6 6 5 4 3 4 3 3 5 4 3
4 7 6 5 2 2 4 5 4 10 10 14 13 9 12 16 14 13 12 14 14 12 15 12 13 14 10 9 7 8 6 5 4 5 3 3 7 6 4 3 3 3 1 1 1 5 4 3 5
8 7 6 2 1 3 3 2 5 9 12 16 12 11 8 10 13 16 15 13 14 14 18 11 11 17 16 16 14 9 8 4 3 4 6 8 8 8 7 7 7 6 5 5 5 6 6 4 1
7 7 3 3 2 1 6 4 6 9 10 12 10 12 14 12 11 14 15 15 14 14 13 9 15 17 19 15 18 16 12 11 10 9 6 7 7 5 9 10 10 8 6 6 5 4 4 3 3
7 5 4 6 4 3 0 6 5 5 5 3 8 10 11 11 11 13 14 13 13 13 15 10 16 19 12 17 17 15 15 13 12 11 10 9 6 5 7 8 6 6 3 5 2 5 2 3 2
4 1 4 4 1 4 4 1 5 3 4 3 3 2 6 7 7 8 9 11 14 14 11 9 15 16 11 11 19 15 13 6 9 7 7 7 7 2 9 7 5 4 6 3 5 1 3 4 2
4 3 2 1 2 2 2 1 3 3 3 6 6 9 8 8 9 11 12 11 10 7 10 10 11 12 10 11 11 10 9 11 9 7 8 7 5 4 8 6 6 5 2 2 3 3 2 3 3
3 2 2 3 2 3 2 2 3 3 2 5 6 6 8 7 8 7 5 4 5 4 4 8 12 11 11 9 8 8 8 8 8 6 8 7 3 7 4 4 4 5 5 5 5 4 4 4 3
5 2 2 2 4 2 2 4 5 6 5 5 4 5 4 5 6 6 7 8 7 9 12 11 11 10 10 8 7 6 5 6 4 5 5 4 4 4 4 5 5 5 5 4 5 5 5 5 5
1 2 0 4 3 2 1 5 4 6 7 6 4 5 4 5 5 6 6 5 6 6 8 10 11 11 8 8 6 6 6 6 6 5 4 5 5 4 5 6 5 5 5 5 5 5 5 5 4
Wind_Direction
323 307 295 29 48 73 257 264 248 298 295 140 120 85 201 208 204 217 175 164 136 150 153 154 156 154 150 145 144 147 153 148 140 136 131 126 124 126 130 126 118 120 118 113 111 107 100 97 94
305 306 30 69 116 207 270 241 268 265 130 74 64 18 342 228 81 130 116 143 137 146 153 154 154 156 153 151 150 155 160 157 145 139 133 134 129 127 133 134 124 128 118 116 112 111 107 102 97
296 214 93 149 177 199 239 234 311 353 63 103 27 70 267 153 113 152 166 141 138 146 151 155 151 155 153 151 157 159 167 164 148 142 134 138 134 134 130 132 136 122 127 123 117 116 111 103 95
302 15 349 155 221 246 231 288 346 330 7 59 112 313 30 2 144 165 140 137 139 146 148 152 154 157 157 156 158 160 167 159 146 141 142 141 140 138 138 133 126 133 127 117 124 120 113 105 90
30 62 221 238 250 279 267 264 279 231 222 92 47 258 119 79 93 121 136 138 142 149 141 151 157 160 155 157 154 158 155 150 141 137 143 145 141 144 149 143 144 142 127 131 129 122 115 103 81
16 105 89 236 252 261 286 302 322 302 214 143 54 0 340 122 106 150 135 133 144 140 147 150 153 155 156 152 148 148 151 141 139 139 141 143 147 159 155 148 149 146 140 141 133 127 124 116 96
123 91 231 270 273 291 335 331 22 332 343 350 128 75 355 6 132 143 154 100 129 138 146 146 154 151 147 145 147 146 145 143 141 141 144 151 161 161 163 163 145 144 153 152 150 154 161 148 260
94 96 298 271 241 264 350 341 322 24 309 323 51 38 309 305 96 108 83 106 126 139 146 147 150 149 150 154 153 150 144 143 143 145 147 147 166 167 160 157 143 162 166 170 176 185 206 240 254
18 54 284 347 6 312 354 1 355 291 11 323 336 10 83 18 45 67 106 89 117 126 155 148 159 154 149 152 156 148 147 146 143 141 145 144 144 168 174 166 163 165 164 186 202 214 228 239 256
74 119 68 339 23 338 333 20 332 357 343 326 341 19 16 24 67 23 166 146 185 172 167 163 158 166 157 159 150 141 150 151 151 147 155 155 166 171 172 175 179 174 181 197 217 231 238 252 257
346 200 344 3 15 13 342 338 345 351 315 6 317 307 325 320 279 187 206 223 186 186 178 165 168 167 165 149 150 151 142 151 153 159 165 181 180 177 160 161 178 184 205 217 230 244 243 239 239
2 335 10 333 346 331 301 288 305 253 264 286 297 295 303 307 291 243 223 216 184 189 180 171 185 170 169 154 160 160 163 162 178 176 190 173 178 172 162 177 186 195 199 213 220 220 236 236 231
22 338 324 323 306 283 270 263 244 285 306 290 277 274 293 275 283 267 239 231 213 201 189 185 192 190 168 164 162 163 171 177 189 175 195 172 173 172 166 184 191 197 194 200 215 208 214 220 235
301 306 289 302 301 328 350 308 45 340 320 339 354 331 296 331 316 305 229 235 205 186 211 196 200 189 176 163 162 165 176 186 183 179 186 184 171 167 175 186 195 195 202 204 209 203 220 234 235
274 315 329 124 341 19 10 318 61 325 353 6 6 357 346 340 341 344 326 311 248 206 202 213 189 162 166 165 159 163 176 163 178 174 176 174 182 191 187 185 195 209 209 218 205 222 197 215 232
295 31 4 324 5 12 57 278 339 355 11 1 355 350 351 342 329 338 329 331 318 230 183 230 202 167 155 153 157 147 159 156 170 172 169 181 184 188 189 187 199 208 220 212 198 206 225 228 237
23 331 333 327 49 8 58 311 346 10 10 355 6 350 343 332 332 338 331 338 335 250 208 199 185 166 160 158 158 146 148 160 171 168 172 184 190 191 184 188 215 217 213 214 204 204 208 220 244
332 339 315 302 335 15 351 2 15 7 6 355 9 347 333 330 338 343 340 343 336 305 209 176 229 165 168 158 157 148 157 158 174 178 178 181 184 190 185 202 215 220 227 211 196 212 225 207 219
216 284 298 274 299 327 333 355 349 4 1 10 354 341 329 333 334 345 356 351 335 354 294 186 187 170 173 166 165 190 183 189 174 175 182 187 188 188 189 201 210 226 226 224 212 207 224 244 230
257 248 285 298 337 329 346 15 9 5 7 19 358 343 338 339 347 357 7 359 354 353 358 200 177 174 176 169 163 174 188 179 178 186 196 198 183 193 193 195 204 210 223 221 223 192 225 239 205
271 177 244 234 310 92 327 153 5 359 344 351 352 354 335 335 353 1 12 5 10 4 7 352 67 54 172 161 154 137 156 122 177 199 197 214 201 200 200 194 201 214 203 232 211 234 243 252 274
299 188 190 308 359 315 68 307 2 351 345 348 351 352 334 343 4 10 12 9 10 3 24 339 49 63 43 35 164 173 187 170 172 195 186 97 67 47 10 294 211 192 208 244 317 50 20 299 290
247 306 281 201 347 265 305 1 308 6 349 342 353 359 4 358 10 1 8 15 13 8 32 340 35 61 60 57 57 55 38 14 64 84 101 96 74 56 55 53 57 50 61 63 72 56 47 29 36
276 300 281 142 199 45 260 118 316 3 332 342 360 17 3 18 18 19 13 17 14 19 26 332 28 45 44 58 58 53 42 52 60 48 68 83 74 67 54 62 76 54 38 48 49 74 66 34 27
21 26 350 5 24 248 36 63 227 273 299 358 13 24 18 12 11 15 15 15 14 7 19 356 44 37 31 44 59 51 41 32 50 57 58 36 69 49 59 45 40 72 40 32 37 36 88 122 63
294 96 152 188 319 270 15 352 274 240 255 192 317 356 47 27 22 35 29 28 14 359 344 20 45 50 28 33 47 42 40 28 43 35 74 55 38 5 54 39 18 21 51 15 59 342 18 358 104
329 58 226 106 29 44 201 346 314 155 88 64 36 8 33 21 24 23 10 7 16 3 334 13 38 54 49 41 53 56 44 38 43 26 49 58 18 26 52 39 4 25 20 41 72 45 18 59 57
248 246 55 2 47 301 287 179 228 184 101 54 56 23 2 20 28 34 37 38 11 347 324 35 43 26 31 41 42 38 48 47 46 33 55 57 310 50 58 78 58 47 26 32 46 52 42 62 50
336 346 339 151 138 255 302 251 209 168 157 126 85 74 60 29 28 29 23 2 16 14 20 24 30 33 32 26 33 36 23 67 73 63 42 45 33 40 54 67 57 45 41 48 64 63 67 68 69
276 283 266 119 292 250 208 269 152 150 148 138 120 95 81 58 46 44 38 25 23 28 23 25 18 34 25 23 30 37 28 44 57 62 64 60 55 33 47 53 57 59 53 45 68 72 70 92 84